CORVUS-BC 4

Last updated on Thu Dec 03 2020 06:15:11 GMT+0000 (Coordinated Universal Time)

1 43767U 18099K 20337.94545670 .00000317 00000-0 34293-4 0 9995 2 43767 97.6883 45.8028 0011550 352.4100 7.6946 14.94804930109075
UTC large
Height (km)
Speed (km/s)
/
Latitude / Longitude
Inclination (degrees)
Orbital Period (minutes)
Azimuth
Elevation
Range (km)
Doppler Factor

Next 0 passes for location: London (51.5072 / 0.1276)

Sorry there are no passes over London.
CORVUS-BC 4